Location: Cahas Mountain Overlook
(37.0833°N, 80.1000°W)
Time: 06:36:47
(UTC-05:00)

Vanguard 2 Rocket - Pass Details

Date: 13 February 2026
Orbit: 553 x 3287 km, 32.9° (Epoch: 5 March)

Event Time Altitude Azimuth Distance (km) Brightness Sun altitude
Rises 18:13:58 0° 275° (W) 5,510 12.6 -3.8°
Reaches altitude 10° 18:18:23 10° 272° (W) 4,042 11.8 -4.7°
Maximum altitude 18:27:41 51° 200° (SSW) 1,379 8.1 -6.5°
Drops below altitude 10° 18:33:08 10° 125° (SE) 2,404 8.7 -7.6°
Enters shadow 18:34:53 - 120° (ESE) 3,030 9.1 -7.9°
